| time (UTC) | temp F | wind direction | speed knots | gust knots | rain 1hr in | rain 24hr in | rain mn in | humidity % | barometer mb |
| 20260905160252 | 68 | 0.0 | 0.0 | 0.00 | 0.00 | 0.00 | 10 | 973.3 | |
| 20260905155254 | 69 | 0.0 | 0.0 | 0.00 | 0.00 | 0.00 | 10 | 972.9 | |
| 20260905154252 | 69 | 0.0 | 0.0 | 0.00 | 0.00 | 0.00 | 10 | 973.0 | |
| 20260905153252 | 70 | 0.0 | 0.0 | 0.00 | 0.00 | 0.00 | 10 | 973.0 | |
| 20260905152252 | 70 | 0.0 | 0.0 | 0.00 | 0.00 | 0.00 | 10 | 972.9 | |
| 20260905151252 | 71 | 0.0 | 0.0 | 0.00 | 0.00 | 0.00 | 10 | 972.7 | |
| 20260905150252 | 72 | 0.0 | 0.0 | 0.00 | 0.00 | 0.00 | 10 | 972.8 | |
| 20260905145252 | 74 | 0.0 | 0.0 | 0.00 | 0.00 | 0.00 | 10 | 972.7 | |
| 20260905144252 | 76 | 0.0 | 0.0 | 0.00 | 0.00 | 0.00 | 95 | 972.5 | |
| 20260905143252 | 78 | 0.0 | 0.0 | 0.00 | 0.00 | 0.00 | 89 | 972.2 | |
| 20260905142252 | 78 | 0.0 | 0.0 | 0.00 | 0.00 | 0.00 | 85 | 972.1 | |
| 20260905141258 | 79 | 0.0 | 0.0 | 0.00 | 0.00 | 0.00 | 90 | 972.1 | |
| 20260905140255 | 79 | 0.0 | 0.0 | 0.00 | 0.00 | 0.00 | 90 | 972.0 | |
| 20260905135253 | 80 | 0.0 | 0.0 | 0.00 | 0.00 | 0.00 | 88 | 972.1 | |
| 20260905134252 | 81 | 0.0 | 0.0 | 0.00 | 0.00 | 0.00 | 79 | 971.9 | |
| 20260905133252 | 82 | 0.0 | 0.0 | 0.00 | 0.00 | 0.00 | 72 | 971.9 | |
| 20260905132252 | 88 | 0.0 | 0.0 | 0.00 | 0.00 | 0.00 | 36 | 971.4 | |
| 20260905131252 | 87 | 0.0 | 0.0 | 0.00 | 0.00 | 0.00 | 37 | 971.4 | |
| 20260905130252 | 87 | 0.0 | 0.0 | 0.00 | 0.00 | 0.00 | 36 | 971.4 | |
| 20260905125252 | 90 | 0.0 | 0.0 | 0.00 | 0.00 | 0.00 | 34 | 971.3 | |
| 20260905124252 | 90 | 0.0 | 0.0 | 0.00 | 0.00 | 0.00 | 33 | 971.2 | |
| 20260905123252 | 89 | 0.0 | 0.0 | 0.00 | 0.00 | 0.00 | 34 | 971.2 | |
| 20260905122252 | 90 | 0.0 | 0.0 | 0.00 | 0.00 | 0.00 | 33 | 971.3 | |
| 20260905121252 | 90 | 0.0 | 0.0 | 0.00 | 0.00 | 0.00 | 34 | 971.4 | |
| 20260905120252 | 90 | 0.0 | 0.0 | 0.00 | 0.00 | 0.00 | 34 | 971.5 | |
| 20260905115252 | 90 | 0.0 | 0.0 | 0.00 | 0.00 | 0.00 | 33 | 971.5 | |
| 20260905114252 | 90 | 0.0 | 0.0 | 0.00 | 0.00 | 0.00 | 35 | 971.5 | |
| 20260905113254 | 90 | 0.0 | 0.0 | 0.00 | 0.00 | 0.00 | 33 | 971.4 | |
| 20260905112253 | 92 | 0.0 | 0.0 | 0.00 | 0.00 | 0.00 | 33 | 971.4 | |
| 20260905111252 | 91 | 0.0 | 0.0 | 0.00 | 0.00 | 0.00 | 34 | 971.4 | |
| 20260905110252 | 90 | 0.0 | 0.0 | 0.00 | 0.00 | 0.00 | 35 | 971.6 | |
| 20260905105259 | 89 | 0.0 | 0.0 | 0.00 | 0.00 | 0.00 | 35 | 971.5 | |
| 20260905104252 | 89 | 0.0 | 0.0 | 0.00 | 0.00 | 0.00 | 38 | 971.5 | |
| 20260905103252 | 88 | 0.0 | 0.0 | 0.00 | 0.00 | 0.00 | 39 | 971.4 | |
| 20260905102317 | 88 | 0.0 | 0.0 | 0.00 | 0.00 | 0.00 | 39 | 971.6 | |
| 20260905091253 | 83 | 0.0 | 0.0 | 0.00 | 0.00 | 0.00 | 47 | 972.6 | |
| 20260905090252 | 83 | 0.0 | 0.0 | 0.00 | 0.00 | 0.00 | 48 | 972.8 | |
| 20260905085252 | 80 | 0.0 | 0.0 | 0.00 | 0.00 | 0.00 | 50 | 972.7 | |
| 20260905084252 | 80 | 0.0 | 0.0 | 0.00 | 0.00 | 0.00 | 50 | 972.6 | |
| 20260905083253 | 80 | 0.0 | 0.0 | 0.00 | 0.00 | 0.00 | 51 | 972.8 | |
| 20260905082253 | 80 | 0.0 | 0.0 | 0.00 | 0.00 | 0.00 | 50 | 972.9 | |
| 20260905081252 | 80 | 0.0 | 0.0 | 0.00 | 0.00 | 0.00 | 52 | 973.0 | |
| 20260905080252 | 81 | 0.0 | 0.0 | 0.00 | 0.00 | 0.00 | 50 | 973.1 | |
| 20260905075252 | 80 | 0.0 | 0.0 | 0.00 | 0.00 | 0.00 | 52 | 973.2 | |
| 20260905074252 | 77 | 0.0 | 0.0 | 0.00 | 0.00 | 0.00 | 56 | 973.2 | |
| 20260905073252 | 77 | 0.0 | 0.0 | 0.00 | 0.00 | 0.00 | 60 | 973.7 | |
| 20260905072252 | 77 | 0.0 | 0.0 | 0.00 | 0.00 | 0.00 | 57 | 973.5 | |
| 20260905071252 | 80 | 0.0 | 0.0 | 0.00 | 0.00 | 0.00 | 52 | 973.3 | |
| 20260905070251 | 79 | 0.0 | 0.0 | 0.00 | 0.00 | 0.00 | 55 | 973.3 | |
| 20260905065252 | 79 | 0.0 | 0.0 | 0.00 | 0.00 | 0.00 | 53 | 973.5 | |
| 20260905064251 | 79 | 0.0 | 0.0 | 0.00 | 0.00 | 0.00 | 58 | 973.2 | |
| 20260905063252 | 78 | 0.0 | 0.0 | 0.00 | 0.00 | 0.00 | 58 | 973.4 | |
| 20260905062251 | 77 | 0.0 | 0.0 | 0.00 | 0.00 | 0.00 | 57 | 973.5 | |
| 20260905061251 | 77 | 0.0 | 0.0 | 0.00 | 0.00 | 0.00 | 63 | 973.6 | |
| 20260905060252 | 75 | 0.0 | 0.0 | 0.00 | 0.00 | 0.00 | 70 | 973.5 | |
| 20260905055251 | 74 | 0.0 | 0.0 | 0.00 | 0.00 | 0.00 | 73 | 973.3 | |
| 20260905054254 | 73 | 0.0 | 0.0 | 0.00 | 0.00 | 0.00 | 81 | 973.3 | |
| 20260905053251 | 75 | 0.0 | 0.0 | 0.00 | 0.00 | 0.00 | 71 | 973.5 | |
| 20260905052251 | 75 | 0.0 | 0.0 | 0.00 | 0.00 | 0.00 | 70 | 973.6 | |
| 20260905051252 | 75 | 0.0 | 0.0 | 0.00 | 0.00 | 0.00 | 71 | 973.7 | |
| 20260905050252 | 73 | 0.0 | 0.0 | 0.00 | 0.00 | 0.00 | 81 | 973.4 | |
| 20260905045251 | 72 | 0.0 | 0.0 | 0.00 | 0.00 | 0.00 | 85 | 973.5 | |
| 20260905044251 | 72 | 0.0 | 0.0 | 0.00 | 0.00 | 0.00 | 88 | 973.4 | |
| 20260905043251 | 71 | 0.0 | 0.0 | 0.00 | 0.00 | 0.00 | 90 | 973.2 | |
| 20260905042251 | 69 | 0.0 | 0.0 | 0.00 | 0.00 | 0.00 | 10 | 973.2 | |
| 20260905041251 | 71 | 0.0 | 0.0 | 0.00 | 0.00 | 0.00 | 94 | 973.4 |